Lufkin, TX

2:24 AM CST on November 14, 2019 (GMT -0600)
Angelina County

Weather History for KLFK - October, 2019

Change the Weather History Date:

Sunday, October 20, 2019

  Actual Average Record
Temperature  
Mean Temperature 76 °F 66 °F  
Max Temperature 89 °F 79 °F 98 °F (1920)
Min Temperature 64 °F 54 °F 26 °F (1989)
Degree Days  
Heating Degree Days 0 2  
Month to date heating degree days 24 26  
Since 1 July heating degree days 24 30  
Cooling Degree Days 12 4  
Month to date cooling degree days 160 113  
Year to date cooling degree days 2624 2510  
Growing Degree Days 26 (Base 50)    
Moisture  
Dew Point 69 °F    
Average Humidity 79    
Maximum Humidity 93    
Minimum Humidity 59    
Precipitation  
Precipitation 0.00 in 0.18 in 3.52 in (1993)
Month to date precipitation 2.57 2.88  
Year to date precipitation 35.56 37.55  
Snow  
Snow 0.00 in - - ()
Month to date snowfall 0.0  
Since 1 July snowfall 0.0  
Since 1 September snowfall 0.0  
Snow Depth 0.00 in    
Sea Level Pressure  
Sea Level Pressure 29.77 in    
Wind  
Wind Speed 6 mph ()    
Max Wind Speed 20 mph    
Max Gust Speed 28 mph    
Visibility 9.6 miles    
Events      
T = Trace of Precipitation, MM = Missing Value Source: Averaged Metar Reports

Daily Weather History Graph

Daily Weather History Graph

Search for Another Location

Airport or City:

Astronomy

Oct. 20, 2019 Rise Set
Actual Time 7:25 AM CDT 6:41 PM CDT
Civil Twilight 7:00 AM CDT 7:06 PM CDT
Nautical Twilight 6:32 AM CDT 7:34 PM CDT
Astronomical Twilight 6:04 AM CDT 8:02 PM CDT
Moon No Moon Rise 1:38 PM CDT (10/20)
Length of Visible Light 12h 05m
Length of Day
11h 16m
Waning Gibbous, 59% of the Moon is Illuminated
Oct 20
Waning Gibbous
Oct 21
Last Quarter
Oct 27
New
Nov 4
First Quarter
Nov 12
Full

Hourly Weather History & Observations

Time (CDT) Temp. Heat Index Dew Point Humidity Pressure Visibility Wind Dir Wind Speed Gust Speed Precip Events Conditions
12:18 AM 73.0 °F - 71.1 °F 93% 29.76 in 9.0 mi South 4.6 mph - N/A   Mostly Cloudy
12:53 AM 72.0 °F - 70.0 °F 93% 29.75 in 7.0 mi SSE 6.9 mph - N/A   Clear
1:13 AM 72.0 °F - 70.0 °F 93% 29.76 in 7.0 mi SSE 5.8 mph - N/A   Scattered Clouds
1:53 AM 73.0 °F - 71.1 °F 93% 29.75 in 9.0 mi South 5.8 mph - N/A   Partly Cloudy
2:53 AM 73.9 °F - 72.0 °F 93% 29.75 in 10.0 mi SSW 5.8 mph - N/A   Scattered Clouds
3:00 AM 73.9 °F - 72.0 °F 93% 29.77 in 10.0 mi SW 4.6 mph - N/A   Mostly Cloudy
3:53 AM 73.0 °F - 71.1 °F 93% 29.76 in 10.0 mi SW 6.9 mph - N/A   Scattered Clouds
4:53 AM 70.0 °F - 66.9 °F 90% 29.77 in 10.0 mi Calm Calm - N/A   Clear
5:53 AM 68.0 °F - 64.0 °F 87% 29.78 in 10.0 mi Calm Calm - N/A   Clear
6:53 AM 64.9 °F - 63.0 °F 93% 29.80 in 10.0 mi Calm Calm - N/A   Clear
7:53 AM 64.9 °F - 63.0 °F 93% 29.81 in 7.0 mi Calm Calm - N/A   Partly Cloudy
8:21 AM 66.9 °F - 64.9 °F 93% 29.83 in 10.0 mi Calm Calm - N/A   Partly Cloudy
8:53 AM 69.1 °F - 64.0 °F 84% 29.83 in 10.0 mi Calm Calm - N/A   Clear
9:53 AM 73.9 °F - 61.0 °F 64% 29.84 in 10.0 mi SW 4.6 mph - N/A   Clear
10:53 AM 79.0 °F - 64.9 °F 62% 29.84 in 10.0 mi SW 9.2 mph - N/A   Clear
11:53 AM 82.9 °F 86.5 °F 69.1 °F 63% 29.83 in 10.0 mi SSW 10.4 mph - N/A   Clear
12:53 PM 84.0 °F 88.4 °F 70.0 °F 63% 29.81 in 10.0 mi SW 9.2 mph - N/A   Partly Cloudy
1:53 PM 86.0 °F 91.5 °F 71.1 °F 61% 29.77 in 10.0 mi SW 9.2 mph - N/A   Mostly Cloudy
2:53 PM 87.1 °F 92.8 °F 71.1 °F 59% 29.74 in 10.0 mi South 8.1 mph - N/A   Mostly Cloudy
3:53 PM 87.1 °F 93.6 °F 72.0 °F 61% 29.73 in 10.0 mi South 9.2 mph - N/A   Scattered Clouds
4:53 PM 87.1 °F 93.6 °F 72.0 °F 61% 29.72 in 10.0 mi South 10.4 mph - N/A   Scattered Clouds
5:53 PM 84.9 °F 90.7 °F 72.0 °F 65% 29.72 in 10.0 mi SSE 12.7 mph - N/A   Clear
6:53 PM 81.0 °F 84.4 °F 70.0 °F 69% 29.71 in 10.0 mi SSE 16.1 mph - N/A   Clear
7:53 PM 80.1 °F 83.2 °F 70.0 °F 71% 29.72 in 10.0 mi South 11.5 mph 20.7 mph N/A   Clear
8:53 PM 78.1 °F - 72.0 °F 81% 29.73 in 10.0 mi South 9.2 mph - N/A   Clear
9:42 PM 78.1 °F - 72.0 °F 81% 29.76 in 10.0 mi South 8.1 mph - N/A   Mostly Cloudy
9:53 PM 78.1 °F - 72.0 °F 81% 29.74 in 10.0 mi South 9.2 mph - N/A   Mostly Cloudy
10:46 PM 78.1 °F - 73.0 °F 84% 29.75 in 10.0 mi South 11.5 mph 21.9 mph N/A   Scattered Clouds
10:53 PM 78.1 °F - 72.0 °F 81% 29.74 in 10.0 mi South 13.8 mph - N/A   Scattered Clouds
11:04 PM 78.1 °F - 73.0 °F 84% 29.75 in 10.0 mi South 16.1 mph 20.7 mph N/A   Mostly Cloudy
11:53 PM 79.0 °F - 73.0 °F 82% 29.72 in 10.0 mi South 17.3 mph 27.6 mph N/A   Mostly Cloudy